OCULUS-ASR (44356 NORAD) Tracking and Keplerian Element Data

This shows tracking and keplerian element data for the satellite.

Feedback or suggestion? Click here.




ElementValue
Catalog44356
NameOCULUS-ASR
Epoch Orbit383
Epoch Day201.90845806
Epoch Year2019
RAAN34.0841
Inclination28.5294
Eccentricity0.038838
Argument of Perigee16.2634
Mean Anonmoly345.0043
Mean Motion14.98451076
Decay Rate0.00020043
L11 44356U 19036T 19201.90845806 .00020043 00000-0 29900-3 0 9996
L22 44356 28.5294 34.0841 0388380 16.2634 345.0043 14.98451076 3834

Live tracking and technical data element details for OCULUS-ASR (NORAD 44356). OCULUS-ASR can be tracked NOW for your location showing map with azimuth and elevation plus other details from your city location.

Track the satellite on the map from your city or location and see movement details for azimuth, elevation, latitude, longitude, range, height, and movement on the map or in text.







IsCatalogInMostPopularTable: catalog: 44356, numindb: 7
Update: records affected: 1



GetName: 44356 OCULUS-ASR

Hit Count: updated at: Sun, 21 Jul 2019 21:24:18 GMT